Location: *
(57.8420°S, 159.8600°W)
Time: 13:11:49
(UTC+00:00)

IRIDIUM 106 - Pass Details

Date: 18 May 2021
Orbit: 776 x 779 km, 86.4° (Epoch: 22 June)

Event Time Altitude Azimuth Distance (km) Brightness Sun altitude
Rises 03:59:41 0° 186° (S) 3,308 7.5 -11.8°
Reaches altitude 10° 04:02:03 10° 186° (S) 2,374 6.7 -12.1°
Maximum altitude 04:07:24 88° 96° (E) 801 4.4 -12.8°
Drops below altitude 10° 04:12:41 10° 4° (N) 2,349 7.0 -13.5°
Sets 04:15:02 0° 4° (N) 3,270 7.7 -13.8°
